Regional Weather Roundup
Issued by NWS Columbia, SC

Home | Current Version | Previous Version | Text Only | Print | Product List | Glossary On
Versions: 1 2 3 4 5 6 7 8 9 10 11 12 13 14 15 16 17 18 19 20 21 22 23 24 25 26 27 28 29 30 31 32 33 34 35 36 37 38 39 40 41 42 43 44 45 46 47 48 49 50
499
ASUS42 KCAE 240010
RWRCAE
REGIONAL WEATHER ROUNDUP
NATIONAL WEATHER SERVICE COLUMBIA SC
700 PM EST TUE JAN 23 2018

NOTE: "FAIR" INDICATES FEW OR NO CLOUDS BELOW 12,000 FEET WITH NO
SIGNIFICANT WEATHER AND/OR OBSTRUCTIONS TO VISIBILITY.

NOT ALL STATIONS ARE QUALITY CONTROLLED BY THE NATIONAL
WEATHER SERVICE. USE DATA WITH CAUTION...ESPECIALLY
DEWPOINT OBSERVATIONS.

SCZ001>056-GAZ040-063>065-077-240100-
...UPSTATE SOUTH CAROLINA...

CITY           SKY/WX    TMP DP  RH WIND       PRES   REMARKS
ANDERSON       FAIR      51  31  46 W13G22    29.99R
6HR MIN TEMP:  51; 6HR MAX TEMP:  58;

LIBERTY        FAIR      51  29  43 W10G22    29.96R
6HR MIN TEMP:  51; 6HR MAX TEMP:  61;

SPARTANBURG    FAIR      52  30  43 SW8       29.94R
CLEMSON        FAIR      50  31  48 W10       30.00R
6HR MIN TEMP:  50; 6HR MAX TEMP:  59;

GREENVILLE     FAIR      52  31  44 W12       29.95R
6HR MIN TEMP:  52; 6HR MAX TEMP:  62;

GREENWOOD      FAIR      51  30  44 W10       30.00R
6HR MIN TEMP:  51; 6HR MAX TEMP:  58;

GREER          FAIR      51  31  46 SW12      29.95R
6HR MIN TEMP:  51; 6HR MAX TEMP:  61;

ROCK HILL      FAIR      52  32  46 SW9       29.93R
6HR MIN TEMP:  52; 6HR MAX TEMP:  62;

CHESTER        FAIR      50  30  46 W3        29.95R
LAURENS        FAIR      52  32  46 SW12G17   29.97R


...CENTRAL SOUTH CAROLINA...

CITY           SKY/WX    TMP DP  RH WIND       PRES   REMARKS
COLUMBIA APT   FAIR      56  34  43 W9        29.97R
6HR MIN TEMP:  56; 6HR MAX TEMP:  70;

COLUMBIA OWENS FAIR      58  29  33 W13       29.97R
6HR MIN TEMP:  58; 6HR MAX TEMP:  69;

MCENTIRE ANGB  PTCLDY    56  31  38 W10       29.96R
6HR MIN TEMP:  56; 6HR MAX TEMP:  71;

ORANGEBURG     FAIR      59  31  34 W12       29.97R
6HR MIN TEMP:  58; 6HR MAX TEMP:  71; 6HR PCP: TRACE;

SUMTER SHAW    FAIR      58  31  36 W14       29.92R
6HR MIN TEMP:  58; 6HR MAX TEMP:  72;

NEWBERRY       FAIR      52  32  46 W8        30.00R
AIKEN          FAIR      50  32  50 W6        30.02R
BARNWELL         N/A     59  34  38 W6G12     29.99R
MANNING        FAIR     N/A N/A N/A MISG      29.95R
CAMDEN         FAIR      55  32  41 W12       29.95R
LANCASTER      FAIR      52  28  40 SW9       29.94R
WINNSBORO      FAIR      52  32  46 SW7       29.96R


...EASTERN AND COASTAL SOUTH CAROLINA...

CITY           SKY/WX    TMP DP  RH WIND       PRES   REMARKS
MYRTLE BEACH   FAIR      64  38  38 W10       29.91R
6HR MIN TEMP:  64; 6HR MAX TEMP:  75;

N MYRTLE BCH   FAIR      65  34  31 W9        29.88R
6HR MIN TEMP:  55; 6HR MAX TEMP:  68;

CONWAY         FAIR      61  34  36 CALM      29.91R
MARION         FAIR      61  30  31 W8        29.90R
HARTSVILLE     FAIR      54  32  43 W5        29.92R
FLORENCE       FAIR      60  34  37 W10       29.91R
6HR MIN TEMP:  60; 6HR MAX TEMP:  74;

DARLINGTON     FAIR      55  35  47 W9        29.92R
6HR MIN TEMP:  55; 6HR MAX TEMP:  71; 6HR PCP:  1.00;

CHARLESTON APT FAIR      64  31  28 W9        29.95R
6HR MIN TEMP:  64; 6HR MAX TEMP:  78;

MOUNT PLEASANT FAIR      64  34  32 W9        29.95R
WALTERBORO     FAIR      59  30  33 W8        29.98R
BEAUFORT       FAIR      63  30  28 W12       29.99
6HR MIN TEMP:  63; 6HR MAX TEMP:  77;



...EASTERN GEORGIA...

CITY           SKY/WX    TMP DP  RH WIND       PRES   REMARKS
AUGUSTA BUSH F FAIR      56  32  40 W9        30.00R
6HR MIN TEMP:  56; 6HR MAX TEMP:  68;

AUGUSTA DANIEL FAIR      57  32  38 W7        30.01R
6HR MIN TEMP:  57; 6HR MAX TEMP:  66;

THOMSON        FAIR      53  32  45 NW8       30.07R
6HR MIN TEMP:  53; 6HR MAX TEMP:  61;

WASHINGTON     FAIR      50  32  50 W7        30.02R
CLAXTON        FAIR      58  34  39 SW3       30.02R
6HR MIN TEMP:  58; 6HR MAX TEMP:  73;

SYLVANIA       FAIR      57  35  43 W3        30.02R
6HR MIN TEMP:  57; 6HR MAX TEMP:  71;

STATESBORO     FAIR      58  26  28 W3        30.01R
6HR MIN TEMP:  58; 6HR MAX TEMP:  72;

SAVANNAH       MOCLDY    62  29  28 W10       30.01R
6HR MIN TEMP:  62; 6HR MAX TEMP:  77;



...SOUTHERN NORTH CAROLINA...

CITY           SKY/WX    TMP DP  RH WIND       PRES   REMARKS
CHARLOTTE      FAIR      54  32  43 W8        29.92R
6HR MIN TEMP:  53; 6HR MAX TEMP:  64;

MONROE         FAIR      52  32  46 SW14      29.91R
6HR MIN TEMP:  51; 6HR MAX TEMP:  63;

WADESBORO      FAIR      55  28  36 SW7       29.90R
6HR MIN TEMP:  55; 6HR MAX TEMP:  67;

ROCKINGHAM     FAIR      55  32  41 W7        29.90R
6HR MIN TEMP:  55; 6HR MAX TEMP:  69;

RUTHERFORDTON  FAIR      50  28  42 NW3       29.95R
6HR MIN TEMP:  50; 6HR MAX TEMP:  64;

ASHEVILLE      FAIR      44  28  53 N10G21    29.97R
6HR MIN TEMP:  44; 6HR MAX TEMP:  52;


$$




USA.gov is the U.S. government's official web portal to all federal, state and local government web resources and services.